FW9787 Weather Reports


time (UTC)temp
C
wind
direction
speed
KPH
gust
KPH
rain 1hr
cm
rain 24hr
cm
rain mn
cm
humidity
%
barometer
mb
20260503004538 10 134 0.0 3.2 0.00 0.00 0.00 50 1006.8
20260503003038 10 134 0.0 6.4 0.00 0.00 0.00 48 1006.9
20260503001532 11 134 0.0 1.6 0.00 0.00 0.00 48 1006.9
20260503000030 11 134 0.0 3.2 0.00 0.00 0.00 42 1007.2
20260502234534 12 134 0.0 3.2 0.00 0.00 0.00 39 1007.3
20260502233029 13 134 0.0 4.8 0.00 0.00 0.00 38 1007.5
20260502231528 15 134 1.6 4.8 0.00 0.00 0.00 34 1007.6
20260502230026 15 134 0.0 6.4 0.00 0.00 0.00 29 1007.7
20260502224525 16 134 0.0 4.8 0.00 0.00 0.00 26 1007.7
20260502223023 16 135 0.0 4.8 0.00 0.00 0.00 27 1008.1
20260502221521 15 134 0.0 6.4 0.00 0.00 0.00 27 1008.1
20260502220022 14 134 0.0 1.6 0.00 0.00 0.00 27 1008.4
20260502214519 15 135 1.6 4.8 0.00 0.00 0.00 25 1008.4
20260502213033 15 135 0.0 6.4 0.00 0.00 0.00 24 1008.7
20260502211519 16 134 1.6 8.0 0.00 0.00 0.00 22 1009.1
20260502210014 16 133 3.2 8.0 0.00 0.00 0.00 21 1009.3
20260502204512 16 134 4.8 8.0 0.00 0.00 0.00 24 1009.6
20260502203009 16 135 1.6 8.0 0.00 0.00 0.00 22 1009.9
20260502201522 17 133 3.2 11.3 0.00 0.00 0.00 22 1010.2
20260502200005 17 134 4.8 14.5 0.00 0.00 0.00 24 1010.5
20260502194503 17 140 6.4 14.5 0.00 0.00 0.00 23 1010.8
20260502193119 17 140 4.8 12.9 0.00 0.00 0.00 25 1011.2
20260502191557 16 136 6.4 14.5 0.00 0.00 0.00 29 1011.5
20260502190054 16 132 3.2 16.1 0.00 0.00 0.00 31 1011.7
20260502184601 16 132 3.2 12.9 0.00 0.00 0.00 31 1012.0
20260502183052 16 140 6.4 14.5 0.00 0.00 0.00 33 1012.2
20260502181550 16 134 4.8 11.3 0.00 0.00 0.00 35 1012.6
20260502163021 10 142 3.2 8.0 0.00 0.00 0.00 66 1014.4
20260502161515 8 147 3.2 8.0 0.00 0.00 0.00 72 1014.7
20260502151503 7 127 4.8 11.3 0.00 0.00 0.00 77 1015.7
20260502123027 0 115 0.0 0.0 0.00 0.00 0.00 100 1016.6
20260502121530 -1 114 0.0 0.0 0.00 0.00 0.00 100 1016.6
20260502114527 -2 114 0.0 0.0 0.00 0.00 0.00 100 1016.8
20260502113027 -3 114 0.0 0.0 0.00 0.00 0.00 100 1016.7
20260502111523 -3 115 0.0 3.2 0.00 0.00 0.00 100 1016.7
20260502110021 -3 114 0.0 0.0 0.00 0.00 0.00 100 1016.7
20260502104526 -3 115 0.0 0.0 0.00 0.00 0.00 100 1016.6
20260502103020 -3 114 0.0 0.0 0.00 0.00 0.00 100 1016.7
20260502101518 -3 114 0.0 0.0 0.00 0.00 0.00 100 1016.7
20260502091518 -2 115 0.0 0.0 0.00 0.00 0.00 100 1016.6
20260502071501 -2 114 1.6 3.2 0.00 0.00 0.00 100 1017.4
20260502070117 -1 114 0.0 0.0 0.00 0.00 0.00 100 1017.5
20260502064559 -1 115 0.0 0.0 0.00 0.00 0.00 100 1017.6
20260502063118 -1 115 0.0 0.0 0.00 0.00 0.00 100 1017.6
20260502061557 -1 115 0.0 0.0 0.00 0.00 0.00 100 1017.6
20260502060057 -1 115 0.0 0.0 0.00 0.00 0.00 100 1017.6
20260502054606 -1 114 0.0 0.0 0.00 0.00 0.00 100 1017.7
20260502053053 -1 114 0.0 0.0 0.00 0.00 0.00 100 1017.6
20260502051552 -1 114 0.0 3.2 0.00 0.00 0.00 100 1017.7
20260502050053 -1 115 1.6 4.8 0.00 0.00 0.00 100 1017.9
20260502044548 -1 114 1.6 3.2 0.00 0.00 0.00 95 1017.9
20260502043103 -1 115 3.2 4.8 0.00 0.00 0.00 85 1017.8
20260502041610 0 114 1.6 3.2 0.00 0.00 0.00 80 1017.7
20260502040054 0 115 0.0 3.2 0.00 0.00 0.00 78 1017.8
20260502034548 0 114 0.0 3.2 0.00 0.00 0.00 76 1017.7
20260502033046 0 115 1.6 4.8 0.00 0.00 0.00 73 1017.9
20260502031545 0 114 0.0 3.2 0.00 0.00 0.00 71 1018.0
20260502030101 0 114 1.6 3.2 0.00 0.00 0.00 70 1017.8
20260502024554 1 114 1.6 3.2 0.00 0.00 0.00 70 1017.7
20260502023105 1 114 1.6 4.8 0.00 0.00 0.00 68 1017.7
20260502021544 2 114 1.6 3.2 0.00 0.00 0.00 68 1017.7
20260502020043 2 114 0.0 0.0 0.00 0.00 0.00 66 1017.5
20260502014543 3 115 0.0 0.0 0.00 0.00 0.00 65 1017.5
20260502013052 3 114 0.0 0.0 0.00 0.00 0.00 63 1017.3
20260502011600 5 115 0.0 0.0 0.00 0.00 0.00 61 1017.3
20260502010041 6 115 0.0 0.0 0.00 0.00 0.00 61 1017.2